Location: Liscomb Game Sanctuary
(45.1633°N, 62.5575°W)
Time: 14:42:46
(UTC-03:00)

Cosmos 494 Rocket - Pass Details

Date: 22 February 2018
Orbit: 742 x 771 km, 74.1° (Epoch: 21 July)

Event Time Altitude Azimuth Distance (km) Brightness Sun altitude
Rises 19:30:59 0° 182° (S) 3,218 7.2 -18.9°
Reaches altitude 10° 19:33:25 10° 176° (S) 2,292 6.4 -19.3°
Maximum altitude 19:38:22 46° 104° (ESE) 1,018 4.2 -20.2°
Enters shadow 19:39:34 39° 67° (ENE) 1,135 4.4 -20.4°
